GOES 14

Last updated on Wed Sep 17 2025 00:02:22 GMT+0000 (Coordinated Universal Time)

1 35491U 09033A 25259.56223859 -.00000086 00000+0 00000+0 0 9993 2 35491 0.9684 86.5671 0003793 108.4036 254.8561 1.00269801 3852
UTC large
Height (km)
Speed (km/s)
/
Latitude / Longitude
Inclination (degrees)
Orbital Period (minutes)
Azimuth
Elevation
Range (km)
Doppler Factor

Next 0 passes for location: London (51.5072 / 0.1276)

Sorry there are no passes over London.